Regional Weather Roundup
Issued by NWS Cleveland, OH

Home | Current Version | Previous Version | Text Only | Print | Product List | Glossary Off
Versions: 1 2 3 4 5 6 7 8 9 10 11 12 13 14 15 16 17 18 19 20 21 22 23 24 25 26 27 28 29 30 31 32 33 34 35 36 37 38 39 40 41 42 43 44 45 46 47 48 49 50

000
ASUS41 KCLE 250800
RWRCLE
OHIO REGIONAL WEATHER ROUNDUP
NATIONAL WEATHER SERVICE WILMINGTON, OH
400 AM EDT WED APR 25 2018

NOTE: "FAIR" INDICATES FEW OR NO CLOUDS BELOW 12,000 FEET WITH NO
SIGNIFICANT WEATHER AND/OR OBSTRUCTIONS TO VISIBILITY.

OHZ001>008-015>018-024>027-034-035-043-044-250900-
   NORTHWEST OHIO

CITY           SKY/WX    TMP DP  RH WIND       PRES   REMARKS
DEFIANCE       CLOUDY    51  49  92 N6        29.92F FOG
FINDLAY        CLOUDY    50  46  86 NW7       29.88S FOG
TOLEDO EXPRESS CLOUDY    51  51 100 N5        29.90S FOG
TOLEDO EXEC    FOG       48  47  96 N3        29.91R VSB 1
LIMA           FOG       49  49 100 NW8       29.89F VSB 1/4
$$

OHZ009>014-019>023-028>033-038-089-250900-
   NORTHEAST OHIO

CITY           SKY/WX    TMP DP  RH WIND       PRES   REMARKS
CLE-HOPKINS    LGT RAIN  51  49  92 N5        29.90F FOG
CLE-LAKEFRONT  LGT RAIN  45  43  93 NE6       29.87F
CUY CO. ARPT   NOT AVBL
LORAIN-ELYRIA  FOG       51  47  86 NE3       29.88F VSB 1
ASHTABULA      CLOUDY    50  50 100 NE3       29.89F
AKRON-CANTON   CLOUDY    51  48  89 CALM      29.86F FOG
WOOSTER        NOT AVBL
MANSFIELD      LGT RAIN  51  51 100 NW3       29.87F VSB 1
YOUNGSTOWN     LGT RAIN  50  48  93 E6        29.87F
$$

OHZ042-051>053-060>062-070>072-077>081-250900-
  SOUTHWEST OHIO

CITY           SKY/WX    TMP DP  RH WIND       PRES   REMARKS
CINC-COVINGTON CLOUDY    53  51  93 N9        29.88F FOG
CINC-LUNKEN    CLOUDY    54  53  97 N6        29.88F
HAMILTON       CLOUDY    53  51  93 NW5       29.89F
DAYTON         NOT AVBL
WRIGHT-PAT AFB NOT AVBL
DAYTON GENERAL CLOUDY    53  51  93 N7        29.87F
WILMINGTON     FOG       54  54 100 NW7       29.87S VSB 1/4
$$

OHZ036-037-039>041-045>050-054>059-063>069-073>076-082>088-250900-
  CENTRAL AND SOUTHEAST OHIO

CITY           SKY/WX    TMP DP  RH WIND       PRES   REMARKS
COLUMBUS       CLOUDY    53  52  96 N6        29.86F
OSU AIRPORT    CLOUDY    52  51  97 NW6       29.86F FOG
BOLTON FIELD   CLOUDY    52  52 100 NW3       29.87F FOG
RICKENBACK AFB NOT AVBL
NEWARK         CLOUDY    52  51  97 CALM      29.85F
MARION         LGT RAIN  52  50  93 N3        29.88S FOG
LANCASTER      CLOUDY    52  52 100 NW3       29.86S
ZANESVILLE     NOT AVBL
NEW PHILLY     CLOUDY    51  49  92 N5        29.86F
$$




USA.gov is the U.S. government's official web portal to all federal, state and local government web resources and services.